| time (UTC) | temp C | wind direction | speed KPH | gust KPH | rain 1hr cm | rain 24hr cm | rain mn cm | humidity % | barometer mb |
| 20260509112504 | 5 | 316 | 0.0 | 1.6 | 0.00 | 0.10 | 0.00 | 92 | 1006.6 |
| 20260509112003 | 5 | 66 | 0.0 | 1.6 | 0.00 | 0.10 | 0.00 | 92 | 1006.6 |
| 20260509111551 | 4 | 0 | 0.0 | 3.2 | 0.00 | 0.10 | 0.00 | 91 | 1007.4 |
| 20260509111004 | 4 | 188 | 0.0 | 1.6 | 0.00 | 0.10 | 0.00 | 92 | 1006.6 |
| 20260509110504 | 4 | 30 | 0.0 | 1.6 | 0.00 | 0.10 | 0.00 | 92 | 1006.7 |
| 20260509110049 | 3 | 0 | 0.0 | 1.6 | 0.00 | 0.10 | 0.00 | 91 | 1007.5 |
| 20260509110004 | 4 | 233 | 0.0 | 1.6 | 0.00 | 0.10 | 0.00 | 92 | 1006.6 |
| 20260509105003 | 3 | 351 | 0.0 | 1.6 | 0.00 | 0.10 | 0.00 | 92 | 1006.5 |
| 20260509104548 | 3 | 0 | 0.0 | 1.6 | 0.00 | 0.10 | 0.00 | 91 | 1007.3 |
| 20260509104503 | 3 | 227 | 0.0 | 1.6 | 0.00 | 0.10 | 0.00 | 92 | 1006.5 |
| 20260509104004 | 3 | 187 | 0.0 | 1.6 | 0.00 | 0.10 | 0.00 | 91 | 1006.5 |
| 20260509103504 | 3 | 57 | 0.0 | 1.6 | 0.00 | 0.10 | 0.00 | 91 | 1006.6 |
| 20260509103051 | 3 | 152 | 0.0 | 1.6 | 0.00 | 0.10 | 0.00 | 91 | 1007.3 |
| 20260509103003 | 3 | 167 | 0.0 | 1.6 | 0.00 | 0.10 | 0.00 | 91 | 1006.5 |
| 20260509102503 | 3 | 141 | 0.0 | 1.6 | 0.00 | 0.10 | 0.00 | 91 | 1006.6 |
| 20260509101555 | 3 | 0 | 0.0 | 1.6 | 0.00 | 0.10 | 0.00 | 91 | 1007.3 |
| 20260509101504 | 3 | 112 | 0.0 | 1.6 | 0.00 | 0.10 | 0.00 | 91 | 1006.5 |
| 20260509101003 | 3 | 184 | 0.0 | 1.6 | 0.00 | 0.10 | 0.00 | 91 | 1006.5 |
| 20260509100503 | 3 | 296 | 0.0 | 1.6 | 0.00 | 0.10 | 0.00 | 91 | 1006.5 |
| 20260509100049 | 3 | 0 | 0.0 | 1.6 | 0.00 | 0.10 | 0.00 | 91 | 1007.3 |
| 20260509095504 | 3 | 194 | 0.0 | 1.6 | 0.00 | 0.10 | 0.00 | 91 | 1006.5 |
| 20260509095003 | 3 | 96 | 0.0 | 1.6 | 0.00 | 0.10 | 0.00 | 91 | 1006.5 |
| 20260509094545 | 3 | 0 | 0.0 | 1.6 | 0.00 | 0.10 | 0.00 | 90 | 1007.4 |
| 20260509094504 | 3 | 106 | 0.0 | 1.6 | 0.00 | 0.10 | 0.00 | 91 | 1006.6 |
| 20260509093503 | 3 | 46 | 0.0 | 1.6 | 0.00 | 0.10 | 0.00 | 90 | 1006.6 |
| 20260509093056 | 2 | 0 | 0.0 | 1.6 | 0.00 | 0.10 | 0.00 | 90 | 1007.4 |
| 20260509093004 | 3 | 31 | 0.0 | 1.6 | 0.00 | 0.10 | 0.00 | 90 | 1006.6 |
| 20260509092504 | 3 | 28 | 0.0 | 1.6 | 0.00 | 0.10 | 0.00 | 90 | 1006.6 |
| 20260509091548 | 2 | 0 | 0.0 | 3.2 | 0.00 | 0.10 | 0.00 | 90 | 1007.4 |
| 20260509091503 | 3 | 53 | 0.0 | 3.2 | 0.00 | 0.10 | 0.00 | 90 | 1006.6 |
| 20260509091003 | 3 | 215 | 1.6 | 1.6 | 0.00 | 0.10 | 0.00 | 90 | 1006.6 |
| 20260509090503 | 3 | 76 | 0.0 | 1.6 | 0.00 | 0.10 | 0.00 | 91 | 1006.6 |
| 20260509090051 | 3 | 197 | 0.0 | 3.2 | 0.00 | 0.10 | 0.00 | 90 | 1007.5 |
| 20260509085003 | 3 | 214 | 0.0 | 1.6 | 0.00 | 0.10 | 0.00 | 91 | 1006.7 |
| 20260509084554 | 3 | 0 | 0.0 | 1.6 | 0.00 | 0.10 | 0.00 | 90 | 1007.5 |
| 20260509084504 | 3 | 313 | 1.6 | 1.6 | 0.00 | 0.10 | 0.00 | 91 | 1006.7 |
| 20260509084004 | 3 | 228 | 1.6 | 1.6 | 0.00 | 0.10 | 0.00 | 91 | 1006.7 |
| 20260509083504 | 3 | 3 | 0.0 | 1.6 | 0.00 | 0.10 | 0.00 | 91 | 1006.7 |
| 20260509083051 | 3 | 0 | 0.0 | 3.2 | 0.00 | 0.10 | 0.00 | 90 | 1007.6 |
| 20260509083004 | 3 | 118 | 0.0 | 1.6 | 0.00 | 0.10 | 0.00 | 90 | 1006.9 |
| 20260509082504 | 3 | 81 | 0.0 | 3.2 | 0.00 | 0.10 | 0.00 | 91 | 1007.0 |
| 20260509082003 | 3 | 211 | 1.6 | 3.2 | 0.00 | 0.10 | 0.00 | 91 | 1007.1 |
| 20260509081548 | 3 | 0 | 0.0 | 3.2 | 0.00 | 0.10 | 0.00 | 90 | 1007.8 |
| 20260509081504 | 3 | 102 | 0.0 | 1.6 | 0.00 | 0.10 | 0.00 | 91 | 1007.1 |
| 20260509080504 | 3 | 209 | 0.0 | 3.2 | 0.00 | 0.10 | 0.00 | 91 | 1007.2 |
| 20260509080053 | 2 | 0 | 0.0 | 3.2 | 0.00 | 0.10 | 0.00 | 90 | 1008.0 |
| 20260509080004 | 3 | 229 | 0.0 | 3.2 | 0.00 | 0.10 | 0.00 | 90 | 1007.2 |
| 20260509075503 | 3 | 225 | 1.6 | 1.6 | 0.00 | 0.10 | 0.00 | 90 | 1007.1 |
| 20260509075004 | 3 | 185 | 0.0 | 1.6 | 0.00 | 0.10 | 0.00 | 90 | 1007.2 |
| 20260509074544 | 2 | 0 | 0.0 | 1.6 | 0.00 | 0.10 | 0.00 | 89 | 1008.0 |
| 20260509074504 | 3 | 37 | 0.0 | 0.0 | 0.00 | 0.10 | 0.00 | 90 | 1007.2 |
| 20260509074003 | 3 | 64 | 0.0 | 1.6 | 0.00 | 0.10 | 0.00 | 90 | 1007.2 |
| 20260509073504 | 3 | 46 | 0.0 | 0.0 | 0.00 | 0.10 | 0.00 | 89 | 1007.3 |
| 20260509073157 | 2 | 0 | 0.0 | 1.6 | 0.00 | 0.10 | 0.00 | 89 | 1008.1 |
| 20260509073003 | 3 | 322 | 0.0 | 1.6 | 0.00 | 0.10 | 0.00 | 89 | 1007.4 |
| 20260509072503 | 3 | 179 | 0.0 | 1.6 | 0.00 | 0.10 | 0.00 | 89 | 1007.4 |
| 20260509071549 | 2 | 0 | 0.0 | 1.6 | 0.00 | 0.10 | 0.00 | 89 | 1008.3 |
| 20260509071504 | 3 | 33 | 0.0 | 1.6 | 0.00 | 0.10 | 0.00 | 89 | 1007.5 |
| 20260509071004 | 3 | 129 | 0.0 | 0.0 | 0.00 | 0.10 | 0.00 | 89 | 1007.5 |
| 20260509070503 | 3 | 63 | 0.0 | 1.6 | 0.00 | 0.10 | 0.00 | 89 | 1007.5 |
| 20260509070136 | 3 | 0 | 0.0 | 1.6 | 0.00 | 0.10 | 0.00 | 88 | 1008.4 |
| 20260509070004 | 3 | 163 | 1.6 | 1.6 | 0.00 | 0.10 | 0.00 | 89 | 1007.6 |
| 20260509065504 | 3 | 52 | 0.0 | 1.6 | 0.00 | 0.10 | 0.00 | 89 | 1007.7 |
| 20260509064612 | 3 | 0 | 0.0 | 1.6 | 0.00 | 0.10 | 0.00 | 89 | 1008.6 |
| 20260509064504 | 3 | 105 | 1.6 | 1.6 | 0.00 | 0.10 | 0.00 | 89 | 1007.8 |
| 20260509064003 | 3 | 98 | 1.6 | 1.6 | 0.00 | 0.10 | 0.00 | 89 | 1007.8 |
| 20260509063503 | 3 | 108 | 0.0 | 1.6 | 0.00 | 0.10 | 0.00 | 89 | 1007.9 |
| 20260509063058 | 3 | 0 | 0.0 | 3.2 | 0.00 | 0.10 | 0.00 | 88 | 1008.8 |
| 20260509063004 | 3 | 127 | 0.0 | 1.6 | 0.00 | 0.10 | 0.00 | 89 | 1008.0 |
| 20260509062503 | 3 | 142 | 0.0 | 3.2 | 0.00 | 0.10 | 0.00 | 88 | 1008.1 |
| 20260509062004 | 3 | 202 | 1.6 | 3.2 | 0.00 | 0.10 | 0.00 | 89 | 1008.2 |
| 20260509061551 | 3 | 223 | 0.0 | 1.6 | 0.00 | 0.10 | 0.00 | 88 | 1008.9 |
| 20260509060054 | 3 | 46 | 0.0 | 1.6 | 0.00 | 0.10 | 0.00 | 88 | 1009.1 |
| 20260509060004 | 3 | 31 | 0.0 | 1.6 | 0.00 | 0.10 | 0.00 | 88 | 1008.3 |
| 20260509055504 | 3 | 89 | 0.0 | 1.6 | 0.00 | 0.10 | 0.00 | 88 | 1008.3 |
| 20260509055003 | 3 | 88 | 0.0 | 0.0 | 0.00 | 0.10 | 0.00 | 88 | 1008.4 |
| 20260509054553 | 3 | 0 | 0.0 | 1.6 | 0.00 | 0.10 | 0.00 | 88 | 1009.1 |
| 20260509054504 | 4 | 50 | 0.0 | 1.6 | 0.00 | 0.10 | 0.00 | 88 | 1008.4 |
| 20260509054003 | 4 | 56 | 0.0 | 1.6 | 0.00 | 0.10 | 0.00 | 88 | 1008.5 |
| 20260509053504 | 4 | 16 | 0.0 | 1.6 | 0.00 | 0.10 | 0.00 | 88 | 1008.5 |
| 20260509053058 | 3 | 0 | 0.0 | 1.6 | 0.00 | 0.10 | 0.00 | 88 | 1009.4 |
| 20260509053004 | 4 | 30 | 0.0 | 1.6 | 0.00 | 0.10 | 0.00 | 88 | 1008.5 |
| 20260509052503 | 4 | 50 | 0.0 | 1.6 | 0.00 | 0.10 | 0.00 | 88 | 1008.6 |
| 20260509051548 | 4 | 0 | 0.0 | 1.6 | 0.00 | 0.10 | 0.00 | 88 | 1009.4 |
| 20260509051003 | 4 | 184 | 0.0 | 1.6 | 0.00 | 0.10 | 0.00 | 89 | 1008.6 |
| 20260509050504 | 4 | 73 | 0.0 | 1.6 | 0.00 | 0.10 | 0.00 | 88 | 1008.6 |
| 20260509050051 | 3 | 0 | 0.0 | 3.2 | 0.00 | 0.10 | 0.00 | 88 | 1009.6 |
| 20260509050003 | 4 | 204 | 1.6 | 1.6 | 0.00 | 0.10 | 0.00 | 88 | 1008.7 |
| 20260509045504 | 4 | 179 | 1.6 | 3.2 | 0.00 | 0.10 | 0.00 | 88 | 1008.7 |
| 20260509045004 | 4 | 197 | 1.6 | 1.6 | 0.00 | 0.10 | 0.00 | 88 | 1008.8 |
| 20260509044549 | 3 | 241 | 0.0 | 1.6 | 0.00 | 0.13 | 0.00 | 87 | 1009.7 |
| 20260509044504 | 4 | 138 | 0.0 | 1.6 | 0.00 | 0.10 | 0.00 | 88 | 1008.7 |
| 20260509043504 | 4 | 68 | 0.0 | 1.6 | 0.00 | 0.10 | 0.00 | 87 | 1008.9 |
| 20260509043045 | 4 | 0 | 0.0 | 1.6 | 0.00 | 0.13 | 0.00 | 86 | 1009.9 |
| 20260509043004 | 4 | 157 | 0.0 | 1.6 | 0.00 | 0.10 | 0.00 | 86 | 1009.0 |
| 20260509042004 | 4 | 156 | 0.0 | 1.6 | 0.00 | 0.10 | 0.00 | 85 | 1009.1 |
| 20260509041548 | 4 | 0 | 0.0 | 1.6 | 0.00 | 0.13 | 0.00 | 84 | 1009.9 |
| 20260509041506 | 4 | 101 | 0.0 | 0.0 | 0.00 | 0.10 | 0.00 | 85 | 1009.0 |
| 20260509040504 | 5 | 76 | 0.0 | 1.6 | 0.00 | 0.13 | 0.00 | 84 | 1009.0 |
| 20260509040052 | 4 | 0 | 0.0 | 1.6 | 0.00 | 0.13 | 0.00 | 84 | 1010.0 |
| 20260509040004 | 5 | 79 | 0.0 | 0.0 | 0.00 | 0.13 | 0.00 | 84 | 1009.0 |
| 20260509035503 | 5 | 49 | 0.0 | 1.6 | 0.00 | 0.13 | 0.13 | 84 | 1009.0 |
| 20260509035003 | 5 | 55 | 0.0 | 1.6 | 0.00 | 0.13 | 0.13 | 84 | 1009.0 |
| 20260509034549 | 5 | 0 | 0.0 | 1.6 | 0.00 | 0.13 | 0.13 | 83 | 1010.0 |
| 20260509034504 | 5 | 152 | 0.0 | 1.6 | 0.00 | 0.13 | 0.13 | 83 | 1009.0 |
| 20260509034003 | 5 | 40 | 0.0 | 1.6 | 0.00 | 0.13 | 0.13 | 83 | 1009.0 |
| 20260509033503 | 5 | 58 | 0.0 | 0.0 | 0.00 | 0.13 | 0.13 | 82 | 1009.1 |
| 20260509033045 | 5 | 0 | 0.0 | 1.6 | 0.00 | 0.13 | 0.13 | 81 | 1010.0 |
| 20260509033004 | 5 | 231 | 1.6 | 1.6 | 0.00 | 0.13 | 0.13 | 82 | 1009.1 |
| 20260509032004 | 5 | 10 | 0.0 | 1.6 | 0.00 | 0.13 | 0.13 | 81 | 1009.1 |
| 20260509031545 | 5 | 0 | 0.0 | 1.6 | 0.00 | 0.13 | 0.13 | 81 | 1010.1 |
| 20260509031504 | 5 | 325 | 0.0 | 1.6 | 0.00 | 0.13 | 0.13 | 81 | 1009.1 |
| 20260509031004 | 5 | 228 | 0.0 | 1.6 | 0.00 | 0.13 | 0.13 | 81 | 1009.2 |
| 20260509030504 | 6 | 99 | 0.0 | 1.6 | 0.00 | 0.13 | 0.13 | 81 | 1009.2 |
| 20260509030048 | 5 | 0 | 0.0 | 1.6 | 0.00 | 0.13 | 0.13 | 80 | 1010.1 |
| 20260509030003 | 6 | 39 | 1.6 | 1.6 | 0.00 | 0.13 | 0.13 | 81 | 1009.2 |
| 20260509025003 | 6 | 267 | 0.0 | 1.6 | 0.00 | 0.13 | 0.13 | 79 | 1009.2 |
| 20260509024545 | 6 | 0 | 0.0 | 1.6 | 0.00 | 0.13 | 0.13 | 78 | 1010.1 |
| 20260509024504 | 6 | 0 | 0.0 | 1.6 | 0.00 | 0.13 | 0.13 | 79 | 1009.2 |
| 20260509024003 | 6 | 255 | 0.0 | 1.6 | 0.00 | 0.13 | 0.13 | 78 | 1009.2 |
| 20260509023504 | 6 | 27 | 0.0 | 0.0 | 0.00 | 0.13 | 0.13 | 78 | 1009.3 |
| 20260509023046 | 6 | 0 | 0.0 | 1.6 | 0.00 | 0.13 | 0.13 | 77 | 1010.2 |
| 20260509022503 | 7 | 310 | 0.0 | 1.6 | 0.00 | 0.13 | 0.13 | 77 | 1009.3 |
| 20260509022003 | 7 | 3 | 0.0 | 0.0 | 0.00 | 0.13 | 0.13 | 76 | 1009.2 |
| 20260509021553 | 6 | 0 | 0.0 | 1.6 | 0.00 | 0.13 | 0.13 | 75 | 1010.2 |
| 20260509021004 | 7 | 180 | 0.0 | 1.6 | 0.00 | 0.13 | 0.13 | 74 | 1009.2 |
| 20260509020503 | 7 | 192 | 0.0 | 1.6 | 0.00 | 0.13 | 0.13 | 74 | 1009.3 |
| 20260509020053 | 7 | 0 | 0.0 | 1.6 | 0.00 | 0.13 | 0.13 | 73 | 1010.2 |
| 20260509015504 | 7 | 302 | 0.0 | 1.6 | 0.00 | 0.13 | 0.13 | 73 | 1009.3 |
| 20260509015003 | 8 | 311 | 0.0 | 1.6 | 0.00 | 0.13 | 0.13 | 72 | 1009.2 |
| 20260509014550 | 7 | 0 | 0.0 | 1.6 | 0.00 | 0.13 | 0.13 | 70 | 1010.1 |
| 20260509014503 | 8 | 339 | 0.0 | 1.6 | 0.00 | 0.13 | 0.13 | 70 | 1009.2 |
| 20260509014004 | 8 | 181 | 0.0 | 1.6 | 0.00 | 0.13 | 0.13 | 69 | 1009.2 |
| 20260509013503 | 8 | 154 | 0.0 | 1.6 | 0.00 | 0.13 | 0.13 | 68 | 1009.2 |
| 20260509013053 | 8 | 0 | 0.0 | 1.6 | 0.00 | 0.13 | 0.13 | 68 | 1010.1 |
| 20260509013003 | 8 | 69 | 0.0 | 1.6 | 0.00 | 0.13 | 0.13 | 68 | 1009.1 |
| 20260509012504 | 8 | 346 | 0.0 | 1.6 | 0.00 | 0.13 | 0.13 | 68 | 1009.1 |
| 20260509011550 | 8 | 0 | 0.0 | 1.6 | 0.00 | 0.13 | 0.13 | 66 | 1010.0 |
| 20260509011504 | 9 | 299 | 0.0 | 0.0 | 0.00 | 0.13 | 0.13 | 67 | 1009.0 |
| 20260509011003 | 10 | 24 | 0.0 | 1.6 | 0.00 | 0.13 | 0.13 | 66 | 1009.0 |
| 20260509010504 | 10 | 322 | 0.0 | 1.6 | 0.00 | 0.13 | 0.13 | 65 | 1008.9 |
| 20260509010051 | 10 | 0 | 0.0 | 1.6 | 0.00 | 0.13 | 0.13 | 62 | 1009.7 |
| 20260509005503 | 10 | 64 | 0.0 | 0.0 | 0.00 | 0.13 | 0.13 | 61 | 1008.6 |
| 20260509005004 | 10 | 49 | 0.0 | 1.6 | 0.00 | 0.13 | 0.13 | 59 | 1008.6 |
| 20260509004546 | 10 | 0 | 0.0 | 3.2 | 0.00 | 0.13 | 0.13 | 58 | 1009.4 |
| 20260509004504 | 11 | 86 | 0.0 | 1.6 | 0.00 | 0.13 | 0.13 | 58 | 1008.6 |
| 20260509004004 | 11 | 122 | 0.0 | 1.6 | 0.00 | 0.13 | 0.13 | 57 | 1008.5 |
| 20260509003050 | 11 | 117 | 0.0 | 1.6 | 0.00 | 0.13 | 0.13 | 54 | 1009.4 |
| 20260509002004 | 12 | 34 | 0.0 | 1.6 | 0.00 | 0.13 | 0.13 | 52 | 1008.5 |
| 20260509001548 | 12 | 0 | 0.0 | 1.6 | 0.00 | 0.13 | 0.13 | 50 | 1009.3 |
| 20260509001504 | 12 | 73 | 0.0 | 1.6 | 0.00 | 0.13 | 0.13 | 50 | 1008.5 |
| 20260509001004 | 12 | 62 | 0.0 | 1.6 | 0.00 | 0.13 | 0.13 | 50 | 1008.5 |
| 20260509000503 | 12 | 101 | 0.0 | 1.6 | 0.00 | 0.13 | 0.13 | 49 | 1008.4 |
| 20260509000049 | 12 | 0 | 0.0 | 1.6 | 0.00 | 0.13 | 0.13 | 49 | 1009.2 |
| 20260508235504 | 13 | 35 | 0.0 | 1.6 | 0.00 | 0.13 | 0.13 | 49 | 1008.5 |
| 20260508235004 | 13 | 357 | 0.0 | 1.6 | 0.00 | 0.13 | 0.13 | 48 | 1008.5 |
| 20260508234547 | 13 | 0 | 0.0 | 3.2 | 0.00 | 0.13 | 0.13 | 49 | 1009.2 |
| 20260508234504 | 13 | 41 | 0.0 | 1.6 | 0.00 | 0.13 | 0.13 | 48 | 1008.4 |
| 20260508234004 | 13 | 39 | 0.0 | 3.2 | 0.00 | 0.13 | 0.13 | 49 | 1008.3 |
| 20260508233503 | 13 | 38 | 1.6 | 3.2 | 0.00 | 0.13 | 0.13 | 47 | 1008.2 |
| 20260508233104 | 13 | 20 | 0.0 | 3.2 | 0.00 | 0.13 | 0.13 | 45 | 1009.0 |
| 20260508233003 | 13 | 20 | 0.0 | 3.2 | 0.00 | 0.13 | 0.13 | 46 | 1008.1 |
| 20260508231557 | 13 | 0 | 0.0 | 6.4 | 0.00 | 0.13 | 0.13 | 43 | 1008.9 |
| 20260508231503 | 14 | 16 | 1.6 | 3.2 | 0.00 | 0.13 | 0.13 | 44 | 1008.1 |
| 20260508231004 | 14 | 19 | 3.2 | 4.8 | 0.00 | 0.13 | 0.13 | 41 | 1008.0 |
| 20260508230503 | 15 | 6 | 1.6 | 4.8 | 0.00 | 0.13 | 0.13 | 40 | 1008.0 |
| 20260508230055 | 15 | 63 | 0.0 | 3.2 | 0.00 | 0.13 | 0.13 | 38 | 1008.9 |
| 20260508230003 | 15 | 29 | 0.0 | 3.2 | 0.00 | 0.13 | 0.13 | 37 | 1008.1 |
| 20260508225504 | 15 | 106 | 1.6 | 3.2 | 0.00 | 0.13 | 0.13 | 39 | 1008.2 |
| 20260508225004 | 15 | 57 | 1.6 | 3.2 | 0.00 | 0.13 | 0.13 | 37 | 1008.1 |
| 20260508224546 | 15 | 53 | 1.6 | 3.2 | 0.00 | 0.13 | 0.13 | 37 | 1009.0 |
| 20260508224504 | 15 | 1 | 1.6 | 3.2 | 0.00 | 0.13 | 0.13 | 38 | 1008.2 |
| 20260508223503 | 14 | 8 | 1.6 | 4.8 | 0.00 | 0.13 | 0.13 | 38 | 1008.1 |
| 20260508223051 | 14 | 253 | 1.6 | 6.4 | 0.00 | 0.13 | 0.13 | 36 | 1008.9 |
| 20260508222503 | 15 | 355 | 3.2 | 4.8 | 0.00 | 0.13 | 0.13 | 34 | 1008.1 |
| 20260508222003 | 15 | 171 | 1.6 | 4.8 | 0.00 | 0.13 | 0.13 | 36 | 1008.1 |
| 20260508221550 | 15 | 39 | 1.6 | 4.8 | 0.00 | 0.13 | 0.13 | 35 | 1008.9 |
| 20260508221004 | 15 | 41 | 3.2 | 4.8 | 0.00 | 0.13 | 0.13 | 34 | 1008.2 |
| 20260508220048 | 15 | 1 | 1.6 | 9.7 | 0.00 | 0.13 | 0.13 | 35 | 1009.0 |
| 20260508220004 | 15 | 329 | 3.2 | 4.8 | 0.00 | 0.13 | 0.13 | 35 | 1008.2 |
| 20260508215503 | 15 | 317 | 3.2 | 8.0 | 0.00 | 0.13 | 0.13 | 35 | 1008.2 |
| 20260508214551 | 16 | 1 | 1.6 | 11.3 | 0.00 | 0.13 | 0.13 | 34 | 1009.1 |
| 20260508214503 | 16 | 310 | 1.6 | 8.0 | 0.00 | 0.13 | 0.13 | 34 | 1008.2 |
| 20260508213504 | 16 | 238 | 3.2 | 4.8 | 0.00 | 0.13 | 0.13 | 34 | 1008.2 |
| 20260508213055 | 17 | 9 | 1.6 | 4.8 | 0.00 | 0.13 | 0.13 | 31 | 1009.1 |
| 20260508213003 | 18 | 108 | 3.2 | 4.8 | 0.00 | 0.13 | 0.13 | 33 | 1008.3 |
| 20260508212504 | 16 | 109 | 3.2 | 4.8 | 0.00 | 0.13 | 0.13 | 34 | 1008.3 |
| 20260508212003 | 18 | 345 | 1.6 | 4.8 | 0.00 | 0.13 | 0.13 | 33 | 1008.3 |
| 20260508211556 | 17 | 314 | 1.6 | 8.0 | 0.00 | 0.13 | 0.13 | 36 | 1009.3 |
| 20260508211504 | 16 | 75 | 3.2 | 4.8 | 0.00 | 0.13 | 0.13 | 34 | 1008.3 |
| 20260508211004 | 15 | 194 | 3.2 | 8.0 | 0.00 | 0.13 | 0.13 | 37 | 1008.3 |
| 20260508210503 | 15 | 308 | 3.2 | 9.7 | 0.00 | 0.13 | 0.13 | 37 | 1008.4 |
| 20260508210050 | 15 | 9 | 3.2 | 11.3 | 0.00 | 0.13 | 0.13 | 37 | 1009.2 |
| 20260508210003 | 15 | 350 | 3.2 | 4.8 | 0.00 | 0.13 | 0.13 | 38 | 1008.3 |
| 20260508205504 | 15 | 8 | 6.4 | 11.3 | 0.00 | 0.13 | 0.13 | 38 | 1008.4 |
| 20260508205004 | 16 | 12 | 3.2 | 4.8 | 0.00 | 0.13 | 0.13 | 34 | 1008.4 |
| 20260508204550 | 16 | 0 | 1.6 | 4.8 | 0.00 | 0.13 | 0.13 | 34 | 1009.4 |
| 20260508204504 | 17 | 355 | 1.6 | 4.8 | 0.00 | 0.13 | 0.13 | 36 | 1008.4 |
| 20260508204004 | 16 | 72 | 1.6 | 4.8 | 0.00 | 0.13 | 0.13 | 39 | 1008.4 |
| 20260508203504 | 13 | 358 | 3.2 | 9.7 | 0.00 | 0.13 | 0.13 | 42 | 1008.6 |
| 20260508203056 | 14 | 343 | 3.2 | 9.7 | 0.00 | 0.13 | 0.13 | 38 | 1009.5 |
| 20260508203004 | 14 | 359 | 3.2 | 4.8 | 0.00 | 0.13 | 0.13 | 38 | 1008.6 |
| 20260508202503 | 14 | 264 | 4.8 | 8.0 | 0.00 | 0.13 | 0.13 | 36 | 1008.7 |
| 20260508202003 | 15 | 276 | 3.2 | 9.7 | 0.00 | 0.13 | 0.13 | 37 | 1008.8 |
| 20260508201548 | 15 | 240 | 6.4 | 16.1 | 0.00 | 0.13 | 0.13 | 35 | 1009.7 |
| 20260508201503 | 15 | 225 | 9.7 | 16.1 | 0.00 | 0.13 | 0.13 | 34 | 1008.9 |
| 20260508201004 | 15 | 174 | 8.0 | 12.9 | 0.00 | 0.13 | 0.13 | 36 | 1008.9 |
| 20260508200503 | 14 | 229 | 4.8 | 14.5 | 0.00 | 0.13 | 0.13 | 39 | 1008.9 |
| 20260508200103 | 13 | 194 | 6.4 | 14.5 | 0.00 | 0.13 | 0.13 | 38 | 1009.7 |
| 20260508200003 | 14 | 204 | 8.0 | 12.9 | 0.00 | 0.13 | 0.13 | 37 | 1008.9 |
| 20260508195004 | 14 | 210 | 4.8 | 12.9 | 0.00 | 0.13 | 0.13 | 39 | 1009.0 |
| 20260508194550 | 14 | 243 | 4.8 | 11.3 | 0.00 | 0.13 | 0.13 | 39 | 1009.9 |
| 20260508194504 | 15 | 239 | 6.4 | 11.3 | 0.00 | 0.13 | 0.13 | 37 | 1009.0 |
| 20260508194003 | 14 | 322 | 3.2 | 4.8 | 0.00 | 0.13 | 0.13 | 38 | 1009.2 |
| 20260508193503 | 15 | 320 | 3.2 | 8.0 | 0.00 | 0.13 | 0.13 | 37 | 1009.3 |
| 20260508193048 | 14 | 354 | 6.4 | 17.7 | 0.00 | 0.13 | 0.13 | 39 | 1010.1 |
| 20260508193003 | 14 | 342 | 4.8 | 19.3 | 0.00 | 0.13 | 0.13 | 39 | 1009.5 |
| 20260508192003 | 14 | 166 | 4.8 | 12.9 | 0.00 | 0.13 | 0.13 | 39 | 1009.5 |
| 20260508191551 | 13 | 318 | 6.4 | 12.9 | 0.00 | 0.13 | 0.13 | 41 | 1010.2 |
| 20260508191004 | 15 | 185 | 3.2 | 9.7 | 0.00 | 0.13 | 0.13 | 37 | 1009.6 |
| 20260508190051 | 15 | 28 | 1.6 | 11.3 | 0.00 | 0.13 | 0.13 | 38 | 1010.2 |
| 20260508190004 | 15 | 118 | 3.2 | 4.8 | 0.00 | 0.13 | 0.13 | 39 | 1009.6 |
| 20260508185503 | 14 | 351 | 3.2 | 11.3 | 0.00 | 0.13 | 0.13 | 43 | 1009.7 |
| 20260508184553 | 15 | 283 | 3.2 | 11.3 | 0.00 | 0.13 | 0.13 | 40 | 1010.4 |
| 20260508184503 | 15 | 271 | 3.2 | 11.3 | 0.00 | 0.13 | 0.13 | 45 | 1009.6 |
| 20260508184004 | 14 | 315 | 1.6 | 4.8 | 0.00 | 0.13 | 0.13 | 42 | 1009.6 |
| 20260508183504 | 13 | 327 | 3.2 | 8.0 | 0.00 | 0.13 | 0.13 | 49 | 1009.7 |
| 20260508183051 | 13 | 322 | 3.2 | 14.5 | 0.00 | 0.13 | 0.13 | 44 | 1010.4 |
| 20260508183003 | 13 | 276 | 4.8 | 14.5 | 0.00 | 0.13 | 0.13 | 47 | 1009.7 |
| 20260508182004 | 16 | 256 | 3.2 | 8.0 | 0.00 | 0.13 | 0.13 | 42 | 1009.7 |
| 20260508181552 | 14 | 152 | 1.6 | 14.5 | 0.00 | 0.13 | 0.13 | 45 | 1010.5 |
| 20260508181503 | 14 | 192 | 3.2 | 11.3 | 0.00 | 0.13 | 0.13 | 46 | 1009.8 |
| 20260508181003 | 13 | 241 | 8.0 | 14.5 | 0.00 | 0.13 | 0.13 | 45 | 1009.8 |
| 20260508180503 | 13 | 297 | 3.2 | 11.3 | 0.00 | 0.13 | 0.13 | 48 | 1009.8 |
| 20260508180051 | 12 | 63 | 1.6 | 17.7 | 0.00 | 0.13 | 0.13 | 52 | 1010.6 |
| 20260508180004 | 12 | 163 | 3.2 | 14.5 | 0.00 | 0.13 | 0.13 | 52 | 1009.8 |
| 20260508175504 | 13 | 198 | 8.0 | 19.3 | 0.00 | 0.13 | 0.13 | 50 | 1009.9 |
| 20260508174608 | 12 | 243 | 8.0 | 16.1 | 0.00 | 0.13 | 0.13 | 50 | 1010.8 |
| 20260508174504 | 12 | 224 | 8.0 | 16.1 | 0.00 | 0.13 | 0.13 | 50 | 1009.9 |
| 20260508174003 | 11 | 184 | 11.3 | 16.1 | 0.00 | 0.13 | 0.13 | 52 | 1010.0 |
| 20260508173049 | 11 | 245 | 6.4 | 17.7 | 0.00 | 0.13 | 0.13 | 56 | 1011.0 |
| 20260508172504 | 12 | 233 | 4.8 | 12.9 | 0.00 | 0.13 | 0.13 | 54 | 1010.2 |
| 20260508172004 | 12 | 173 | 3.2 | 14.5 | 0.00 | 0.13 | 0.13 | 57 | 1010.1 |
| 20260508171551 | 12 | 243 | 6.4 | 16.1 | 0.00 | 0.13 | 0.13 | 52 | 1011.1 |
| 20260508171503 | 12 | 186 | 8.0 | 16.1 | 0.00 | 0.13 | 0.13 | 56 | 1010.2 |
| 20260508171004 | 11 | 195 | 9.7 | 14.5 | 0.00 | 0.13 | 0.13 | 56 | 1010.4 |
| 20260508170504 | 12 | 243 | 3.2 | 11.3 | 0.00 | 0.13 | 0.13 | 56 | 1010.4 |
| 20260508170053 | 11 | 178 | 3.2 | 14.5 | 0.00 | 0.13 | 0.13 | 57 | 1011.2 |
| 20260508170004 | 11 | 195 | 3.2 | 14.5 | 0.00 | 0.13 | 0.13 | 61 | 1010.4 |
| 20260508165503 | 10 | 231 | 4.8 | 12.9 | 0.00 | 0.13 | 0.13 | 60 | 1010.5 |
| 20260508165004 | 10 | 203 | 3.2 | 8.0 | 0.00 | 0.13 | 0.13 | 61 | 1010.6 |
| 20260508164552 | 10 | 0 | 1.6 | 8.0 | 0.00 | 0.13 | 0.13 | 59 | 1011.4 |
| 20260508164504 | 10 | 224 | 3.2 | 8.0 | 0.00 | 0.13 | 0.13 | 60 | 1010.6 |
| 20260508164003 | 11 | 251 | 3.2 | 8.0 | 0.00 | 0.13 | 0.13 | 61 | 1010.7 |
| 20260508163047 | 10 | 230 | 6.4 | 12.9 | 0.00 | 0.13 | 0.13 | 64 | 1011.6 |
| 20260508163004 | 10 | 209 | 8.0 | 12.9 | 0.00 | 0.13 | 0.13 | 64 | 1010.9 |
| 20260508162504 | 10 | 196 | 3.2 | 12.9 | 0.00 | 0.13 | 0.13 | 66 | 1011.0 |
| 20260508162004 | 9 | 213 | 4.8 | 9.7 | 0.00 | 0.13 | 0.13 | 65 | 1010.9 |
| 20260508161549 | 10 | 245 | 3.2 | 11.3 | 0.00 | 0.13 | 0.13 | 63 | 1011.7 |
| 20260508160503 | 10 | 253 | 4.8 | 11.3 | 0.00 | 0.13 | 0.13 | 67 | 1011.0 |
| 20260508160053 | 9 | 0 | 3.2 | 16.1 | 0.00 | 0.13 | 0.13 | 64 | 1011.7 |
| 20260508155504 | 10 | 207 | 8.0 | 16.1 | 0.00 | 0.13 | 0.13 | 66 | 1011.0 |
| 20260508155004 | 10 | 221 | 4.8 | 9.7 | 0.00 | 0.13 | 0.13 | 67 | 1011.1 |
| 20260508154552 | 8 | 232 | 4.8 | 12.9 | 0.00 | 0.13 | 0.13 | 68 | 1011.8 |
| 20260508154503 | 9 | 189 | 4.8 | 8.0 | 0.00 | 0.13 | 0.13 | 68 | 1011.0 |
| 20260508154004 | 9 | 243 | 4.8 | 12.9 | 0.00 | 0.13 | 0.13 | 68 | 1011.0 |
| 20260508153503 | 9 | 229 | 6.4 | 11.3 | 0.00 | 0.13 | 0.13 | 68 | 1011.0 |
| 20260508153052 | 8 | 211 | 8.0 | 14.5 | 0.00 | 0.13 | 0.13 | 69 | 1011.6 |
| 20260508153003 | 9 | 172 | 8.0 | 12.9 | 0.00 | 0.13 | 0.13 | 69 | 1011.0 |
| 20260508152504 | 9 | 249 | 4.8 | 9.7 | 0.00 | 0.13 | 0.13 | 69 | 1010.9 |
| 20260508152004 | 8 | 235 | 4.8 | 12.9 | 0.00 | 0.13 | 0.13 | 72 | 1010.9 |
| 20260508151558 | 8 | 234 | 4.8 | 12.9 | 0.00 | 0.13 | 0.13 | 71 | 1011.6 |
| 20260508151003 | 8 | 179 | 3.2 | 9.7 | 0.00 | 0.13 | 0.13 | 75 | 1011.0 |
| 20260508150504 | 8 | 204 | 4.8 | 12.9 | 0.00 | 0.13 | 0.13 | 74 | 1011.0 |
| 20260508150052 | 8 | 0 | 4.8 | 12.9 | 0.00 | 0.13 | 0.13 | 71 | 1011.6 |
| 20260508150004 | 8 | 220 | 6.4 | 12.9 | 0.00 | 0.13 | 0.13 | 72 | 1010.9 |
| 20260508145504 | 8 | 161 | 4.8 | 12.9 | 0.00 | 0.13 | 0.13 | 75 | 1010.8 |
| 20260508145003 | 8 | 185 | 3.2 | 9.7 | 0.00 | 0.13 | 0.13 | 77 | 1010.8 |
| 20260508144550 | 7 | 198 | 4.8 | 12.9 | 0.00 | 0.13 | 0.13 | 76 | 1011.5 |
| 20260508144004 | 7 | 154 | 6.4 | 12.9 | 0.00 | 0.13 | 0.13 | 79 | 1010.9 |
| 20260508143503 | 7 | 193 | 6.4 | 11.3 | 0.00 | 0.13 | 0.13 | 80 | 1010.9 |
| 20260508143056 | 7 | 138 | 6.4 | 11.3 | 0.00 | 0.13 | 0.13 | 79 | 1011.7 |
| 20260508143004 | 7 | 170 | 4.8 | 9.7 | 0.00 | 0.13 | 0.13 | 81 | 1011.0 |
| 20260508142504 | 6 | 207 | 4.8 | 9.7 | 0.00 | 0.13 | 0.13 | 83 | 1011.1 |
| 20260508142004 | 6 | 176 | 4.8 | 9.7 | 0.00 | 0.13 | 0.13 | 84 | 1011.1 |
| 20260508141550 | 6 | 219 | 3.2 | 6.4 | 0.00 | 0.13 | 0.13 | 85 | 1011.8 |
| 20260508141504 | 6 | 230 | 3.2 | 4.8 | 0.00 | 0.13 | 0.13 | 84 | 1011.1 |
| 20260508141003 | 6 | 209 | 3.2 | 4.8 | 0.00 | 0.13 | 0.13 | 84 | 1011.1 |
| 20260508140504 | 6 | 236 | 1.6 | 4.8 | 0.03 | 0.13 | 0.13 | 86 | 1011.1 |
| 20260508140058 | 6 | 236 | 1.6 | 6.4 | 0.03 | 0.13 | 0.13 | 84 | 1011.8 |
| 20260508140004 | 6 | 224 | 3.2 | 4.8 | 0.03 | 0.13 | 0.13 | 85 | 1011.2 |
| 20260508135504 | 6 | 224 | 3.2 | 4.8 | 0.03 | 0.13 | 0.13 | 85 | 1011.2 |
| 20260508135004 | 6 | 258 | 1.6 | 3.2 | 0.03 | 0.13 | 0.13 | 88 | 1011.2 |
| 20260508134553 | 6 | 0 | 0.0 | 4.8 | 0.03 | 0.13 | 0.13 | 86 | 1011.8 |
| 20260508134503 | 6 | 227 | 1.6 | 4.8 | 0.03 | 0.13 | 0.13 | 86 | 1011.1 |
| 20260508134003 | 6 | 232 | 1.6 | 4.8 | 0.03 | 0.13 | 0.13 | 87 | 1011.1 |
| 20260508133504 | 6 | 196 | 3.2 | 4.8 | 0.05 | 0.13 | 0.13 | 88 | 1011.1 |
| 20260508133050 | 6 | 234 | 1.6 | 8.0 | 0.05 | 0.13 | 0.13 | 87 | 1011.8 |
| 20260508133004 | 6 | 269 | 3.2 | 8.0 | 0.05 | 0.13 | 0.13 | 88 | 1011.2 |
| 20260508132503 | 6 | 220 | 3.2 | 4.8 | 0.08 | 0.13 | 0.13 | 88 | 1011.2 |
| 20260508132003 | 6 | 53 | 3.2 | 9.7 | 0.08 | 0.13 | 0.13 | 88 | 1011.1 |
| 20260508131556 | 6 | 215 | 3.2 | 8.0 | 0.08 | 0.13 | 0.13 | 88 | 1011.8 |
| 20260508131004 | 6 | 236 | 3.2 | 8.0 | 0.08 | 0.13 | 0.13 | 88 | 1011.2 |
| 20260508130503 | 6 | 242 | 1.6 | 4.8 | 0.08 | 0.10 | 0.10 | 88 | 1011.1 |
| 20260508130103 | 5 | 223 | 1.6 | 6.4 | 0.08 | 0.10 | 0.10 | 88 | 1011.7 |
| 20260508130004 | 6 | 224 | 3.2 | 4.8 | 0.08 | 0.10 | 0.10 | 88 | 1011.1 |
| 20260508125504 | 6 | 236 | 3.2 | 4.8 | 0.08 | 0.10 | 0.10 | 88 | 1011.1 |
| 20260508125004 | 6 | 351 | 1.6 | 4.8 | 0.08 | 0.10 | 0.10 | 89 | 1011.1 |
| 20260508124551 | 5 | 0 | 1.6 | 9.7 | 0.08 | 0.10 | 0.10 | 88 | 1011.8 |
| 20260508124504 | 6 | 255 | 1.6 | 4.8 | 0.08 | 0.10 | 0.10 | 89 | 1011.1 |
| 20260508124003 | 6 | 275 | 3.2 | 9.7 | 0.08 | 0.10 | 0.10 | 88 | 1011.0 |
| 20260508123504 | 6 | 232 | 3.2 | 4.8 | 0.05 | 0.08 | 0.08 | 89 | 1011.0 |
| 20260508123059 | 5 | 89 | 1.6 | 12.9 | 0.05 | 0.08 | 0.08 | 90 | 1011.6 |
| 20260508123004 | 6 | 245 | 3.2 | 11.3 | 0.05 | 0.08 | 0.08 | 91 | 1010.9 |
| 20260508122504 | 6 | 245 | 4.8 | 12.9 | 0.03 | 0.05 | 0.05 | 93 | 1010.9 |
| 20260508121546 | 5 | 193 | 1.6 | 4.8 | 0.03 | 0.05 | 0.05 | 94 | 1011.4 |
| 20260508121504 | 5 | 204 | 1.6 | 4.8 | 0.03 | 0.05 | 0.05 | 94 | 1010.5 |
| 20260508121003 | 5 | 60 | 0.0 | 3.2 | 0.03 | 0.05 | 0.05 | 94 | 1010.5 |
| 20260508120503 | 5 | 304 | 0.0 | 1.6 | 0.00 | 0.03 | 0.03 | 94 | 1010.3 |
| 20260508120053 | 5 | 0 | 0.0 | 3.2 | 0.00 | 0.03 | 0.03 | 94 | 1011.0 |
| 20260508120004 | 5 | 255 | 1.6 | 3.2 | 0.00 | 0.03 | 0.03 | 94 | 1010.2 |
| 20260508115505 | 5 | 335 | 0.0 | 1.6 | 0.00 | 0.03 | 0.03 | 94 | 1010.1 |
| 20260508115003 | 5 | 329 | 1.6 | 3.2 | 0.00 | 0.03 | 0.03 | 94 | 1010.1 |
| 20260508114553 | 5 | 206 | 0.0 | 4.8 | 0.00 | 0.03 | 0.03 | 93 | 1010.8 |
| 20260508114503 | 5 | 184 | 1.6 | 3.2 | 0.00 | 0.03 | 0.03 | 94 | 1010.0 |
| 20260508114004 | 5 | 181 | 1.6 | 4.8 | 0.00 | 0.03 | 0.03 | 94 | 1010.0 |
| 20260508113504 | 5 | 193 | 1.6 | 3.2 | 0.00 | 0.03 | 0.03 | 94 | 1010.0 |
| 20260508113050 | 5 | 0 | 0.0 | 1.6 | 0.00 | 0.03 | 0.03 | 94 | 1010.7 |
| 20260508113004 | 5 | 252 | 1.6 | 1.6 | 0.00 | 0.03 | 0.03 | 94 | 1009.9 |